{"data":{"norad_id":57261,"intl_designator":"2023-094AV","name":"STARLINK-5485","alt_names":[],"object_type":"PAYLOAD","status":"ACTIVE","operator":null,"country":"US","launch_date":"2023-07-07","launch_site_code":"AFWTR","launch_vehicle":null,"mission":null,"orbit_class":"UNKNOWN","rcs_meters":null,"size_class":null,"mass_kg":null,"dimensions":null,"purposes":["comms"],"wikipedia_slug":null,"has_3d_model":false,"image_url":null,"decayed_at":null,"tle_current":{"epoch":"2026-05-25T04:09:31.891392Z","epoch_age_seconds":53377,"freshness":"FRESH","line1":"1 57261U 23094AV  26145.17328578  .00000130  00000+0  14246-4 0  9992","line2":"2 57261  43.0031 318.6947 0001753 270.3397  89.7254 15.27576211158814","mean_motion":15.27576211,"eccentricity":0.0001753,"inclination_deg":43.0031,"raan_deg":318.6947,"arg_perigee_deg":270.3397,"mean_anomaly_deg":89.7254,"bstar":1.4246e-5,"rev_number":15881,"period_min":94.266982532893,"perigee_km":481.85767378066,"apogee_km":484.26320960372,"semimajor_km":6861.1974416922,"source":"CELESTRAK","updated_at":"2026-05-25T13:38:18.281329Z"}}}